DW1685 Weather Reports


Display with metric or nautical units.
time (UTC)temp
F
wind
direction
speed
MPH
gust
MPH
rain 1hr
in
rain 24hr
in
rain mn
in
humidity
%
barometer
mb
20180720195038 67 119 1.0 0.0 0.00 0.00 0.00 51 1013.6
20180720193534 66 118 1.0 0.0 0.00 0.00 0.00 51 1013.8
20180720192027 66 117 0.0 0.0 0.00 0.00 0.00 51 1013.9
20180720190522 65 117 1.0 0.0 0.00 0.00 0.00 46 1013.8
20180720185017 65 116 0.0 0.0 0.00 0.00 0.00 48 1013.8
20180720183512 66 115 1.0 0.0 0.00 0.00 0.00 50 1013.8
20180720182011 65 115 1.0 0.0 0.00 0.00 0.00 46 1013.5
20180720180504 65 115 0.0 0.0 0.00 0.00 0.00 40 1013.5
20180720174959 63 115 2.0 0.0 0.00 0.00 0.00 32 1013.4
20180720173455 64 119 1.0 0.0 0.00 0.00 0.00 34 1013.6
20180720171950 64 119 0.0 0.0 0.00 0.00 0.00 41 1013.5
20180720170446 64 119 1.0 0.0 0.00 0.00 0.00 32 1013.4
20180720164941 64 119 0.0 0.0 0.00 0.00 0.00 21 1013.0
20180720163437 63 119 2.0 0.0 0.00 0.00 0.00 16 1013.0
20180720161933 63 119 1.0 0.0 0.00 0.00 0.00 13 1013.2
20180720160428 62 119 1.0 0.0 0.00 0.00 0.00 3 1013.1
20180720154924 61 119 1.0 0.0 0.00 0.00 0.00 4 1013.0
20180720153424 61 121 0.0 0.0 0.00 0.00 0.00 2 1013.2
20180720151917 61 121 1.0 0.0 0.00 0.00 0.00 100 1013.0
20180720150410 61 123 1.0 0.0 0.00 0.00 0.00 100 1012.9
20180720144906 60 133 1.0 0.0 0.00 0.00 0.00 100 1012.8
20180720143401 60 133 0.0 0.0 0.00 0.00 0.00 100 1012.7
20180720142000 61 133 0.0 0.0 0.00 0.00 0.00 8 1012.5
20180720140353 62 133 0.0 0.0 0.00 0.00 0.00 24 1012.6
20180720134852 64 133 1.0 0.0 0.00 0.00 0.00 10 1012.2
20180720133345 63 133 1.0 0.0 0.00 0.00 0.00 100 1012.2
20180720131841 60 138 0.0 0.0 0.00 0.00 0.00 100 1012.3
20180720130336 60 139 0.0 0.0 0.00 0.00 0.00 100 1012.4
20180720124832 59 139 0.0 0.0 0.00 0.00 0.00 100 1012.3
20180720123332 58 139 0.0 0.0 0.00 0.00 0.00 100 1012.1
20180720121822 58 139 0.0 0.0 0.00 0.00 0.00 100 1012.1
20180720120320 58 139 0.0 0.0 0.00 0.00 0.00 100 1012.1
20180720114815 58 139 0.0 0.0 0.00 0.00 0.00 100 1011.9
20180720113309 58 139 0.0 0.0 0.00 0.00 0.00 100 1011.8
20180720111805 59 139 0.0 0.0 0.00 0.00 0.00 100 1011.9
20180720110300 59 139 0.0 0.0 0.00 0.00 0.00 100 1011.9
20180720104757 59 139 0.0 0.0 0.00 0.00 0.00 100 1012.0
20180720103251 59 139 0.0 0.0 0.00 0.00 0.00 100 1011.7
20180720101747 59 139 0.0 0.0 0.00 0.00 0.00 100 1011.8
20180720100246 59 139 0.0 0.0 0.00 0.00 0.00 100 1011.9
20180720094742 59 139 0.0 0.0 0.00 0.00 0.00 100 1011.8
20180720093235 59 139 0.0 0.0 0.00 0.00 0.00 100 1011.8
20180720091730 59 139 0.0 0.0 0.00 0.00 0.00 100 1011.7
20180720090231 59 139 0.0 0.0 0.00 0.00 0.00 100 1011.8
20180720084723 59 139 0.0 0.0 0.00 0.00 0.00 100 1011.8
20180720083218 58 139 0.0 0.0 0.00 0.00 0.00 100 1011.8
20180720081713 57 139 1.0 0.0 0.00 0.00 0.00 100 1011.8
20180720080208 57 139 0.0 0.0 0.00 0.00 0.00 12 1012.2
20180720074707 58 139 0.0 0.0 0.00 0.00 0.00 29 1012.2
20180720073200 60 139 0.0 0.0 0.00 0.00 0.00 22 1011.9
20180720071658 61 139 0.0 0.0 0.00 0.00 0.00 22 1011.8
20180720070153 62 139 0.0 0.0 0.00 0.00 0.00 38 1011.9
20180720064650 63 139 0.0 0.0 0.00 0.00 0.01 45 1011.9
20180720063144 64 139 0.0 0.0 0.00 0.00 0.01 37 1011.8
20180720061640 64 139 0.0 0.0 0.00 0.00 0.01 37 1011.8
20180720060136 64 139 0.0 0.0 0.00 0.00 0.01 32 1011.9
20180720054637 63 139 0.0 0.0 0.00 0.00 0.01 23 1011.9
20180720053127 63 139 0.0 0.0 0.00 0.00 0.01 38 1012.1
20180720051626 63 139 0.0 0.0 0.00 0.00 0.01 39 1012.3
20180720050121 63 139 0.0 0.0 0.00 0.00 0.01 36 1012.2
20180720044614 63 139 0.0 0.0 0.00 0.00 0.01 40 1012.3
20180720043113 64 139 0.0 0.0 0.00 0.00 0.01 44 1011.8
20180720041609 65 139 0.0 0.0 0.00 0.00 0.01 37 1011.7
20180720040101 64 139 0.0 0.0 0.00 0.00 0.01 17 1011.7
20180720034559 63 139 0.0 0.0 0.00 0.00 0.01 17 1011.8
20180720033052 62 139 0.0 0.0 0.00 0.00 0.01 11 1011.7
20180720031547 62 139 0.0 0.0 0.00 0.00 0.01 5 1011.6
20180720030043 61 139 0.0 0.0 0.00 0.00 0.01 100 1011.7
20180720024539 60 139 0.0 0.0 0.00 0.00 0.01 100 1011.7
20180720023034 59 139 0.0 0.0 0.00 0.00 0.01 100 1011.7
20180720021533 59 139 0.0 0.0 0.00 0.00 0.01 23 1011.8
20180720020025 61 139 0.0 0.0 0.00 0.00 0.01 43 1011.8
20180720014523 64 139 0.0 0.0 0.00 0.00 0.01 61 1012.0
20180720013017 67 139 1.0 0.0 0.00 0.00 0.01 64 1011.8
20180720011513 64 139 0.0 0.0 0.00 0.00 0.01 45 1011.8
20180720010013 64 139 0.0 0.0 0.00 0.00 0.01 64 1011.8
20180720004504 67 139 0.0 0.0 0.00 0.00 0.01 67 1012.0
20180720003000 67 139 0.0 0.0 0.00 0.00 0.01 64 1011.9
20180720001455 67 139 0.0 0.0 0.00 0.00 0.01 67 1012.1
20180719235951 70 139 1.0 0.0 0.00 0.00 0.01 67 1012.0
20180719234447 70 139 1.0 0.0 0.00 0.00 0.01 66 1012.1
20180719232945 69 140 2.0 0.0 0.00 0.00 0.01 67 1012.2
20180719231441 69 142 1.0 0.0 0.00 0.00 0.01 67 1012.6
20180719225934 71 142 1.0 0.0 0.00 0.00 0.01 65 1012.7
20180719224428 71 144 1.0 0.0 0.00 0.00 0.01 66 1012.8
20180719222924 69 149 1.0 0.0 0.00 0.00 0.01 67 1013.0
20180719221420 68 149 1.0 0.0 0.00 0.00 0.01 67 1013.1
20180719215925 69 148 1.0 0.0 0.00 0.00 0.01 66 1013.2
20180719214411 67 149 1.0 0.0 0.00 0.00 0.01 67 1013.5
20180719212906 68 148 0.0 0.0 0.00 0.00 0.01 67 1013.5
20180719211403 68 148 1.0 0.0 0.00 0.00 0.01 67 1013.6
20180719205858 68 148 1.0 0.0 0.00 0.00 0.01 67 1013.9
20180719204403 68 153 1.0 0.0 0.00 0.00 0.01 67 1013.9
20180719202904 66 163 1.0 0.0 0.00 0.00 0.01 67 1014.0
20180719201348 66 175 0.0 0.0 0.00 0.00 0.01 67 1014.3
20180719195842 67 178 1.0 0.0 0.00 0.00 0.01 67 1014.2